Home   Weather   Perm   Past weeks

Flag for Russia Past Weather in Perm, Russia — Yesterday and Last 2 Weeks

Now
48 °F

Light rain. Passing clouds.


Feels Like: 45 °F
Forecast: 46 / 53 °F
Wind: 8 mph from Southwest

Location: Perm'/Bolshoe Savino

Current Time: Oct 2, 2016 at 1:51:45 AM

Latest Report: Oct 2, 2016 at 1:30 AM


Visibility: N/A

Pressure: 29.83 "Hg

Humidity: 94%

Dew Point: 46 °F

Location of PermLocation

Past Weather in Perm — Graph

°F

Perm Temperature Yesterday

Maximum temperature yesterday: 48 °F (at 3:00 PM)
Minimum temperature yesterday: 43 °F (at 2:00 AM)
Average temperature yesterday: 46 °F

High & Low Weather Summary for the Past Weeks

 TemperatureHumidityPressure
High72 °F (Sep 24, 1:30 PM)100% (Sep 17, 12:00 AM)30.24 "Hg (Sep 17, 12:00 AM)
Low39 °F (Sep 17, 12:00 AM)40% (Sep 25, 2:30 PM)29.53 "Hg (Sep 17, 12:30 PM)
Average51 °F84%29.95 "Hg
* Reported Sep 17 12:00 AM — Oct 2 12:30 AM, Perm, Weather by CustomWeather, © 2016

Note: Actual official high and low records may vary slightly from our data, if they occured in-between our weather recording intervals... More about our weather records

Advertising

Perm Weather History for the Previous 24 Hours

Scroll right to see more
 ConditionsComfort  
Time TempWeatherWind HumidityBarometerVisibility
12:30 AM
Sun, Oct 2
48 °FPassing clouds.8 mph94%29.83 "HgN/A
12:00 AM48 °FPassing clouds.6 mph94%29.80 "HgN/A
11:30 PM
Sat, Oct 1
46 °FLight rain. Passing clouds.8 mph100%29.80 "Hg6 mi
11:00 PM48 °FPassing clouds.8 mph94%29.80 "Hg6 mi
10:30 PM48 °FPassing clouds.8 mph94%29.80 "HgN/A
10:00 PM48 °FMostly cloudy.8 mph94%29.80 "HgN/A
9:30 PM48 °FMostly cloudy.10 mph94%29.80 "HgN/A
9:00 PM46 °FLow clouds.6 mph100%29.80 "HgN/A
8:30 PM46 °FLight rain. Mostly cloudy.8 mph100%29.80 "Hg5 mi
8:00 PM46 °FLight rain. Low clouds.8 mph100%29.80 "Hg5 mi
7:30 PM46 °FDrizzle. Low clouds.8 mph100%29.80 "Hg5 mi
7:00 PM46 °FPartly sunny.8 mph100%29.80 "Hg6 mi
6:30 PM46 °FPartly sunny.13 mph93%29.80 "HgN/A
6:00 PM48 °FPartly sunny.13 mph87%29.80 "HgN/A
5:30 PM48 °FPartly sunny.10 mph87%29.80 "HgN/A
5:00 PM48 °FPartly sunny.13 mph87%29.80 "HgN/A
4:30 PM48 °FLight rain. Partly sunny.13 mph87%29.80 "HgN/A
4:00 PM48 °FLight rain. Partly sunny.15 mph87%29.80 "HgN/A
3:30 PM48 °FLight rain. Partly sunny.15 mph87%29.80 "HgN/A
3:00 PM48 °FPartly sunny.15 mph87%29.80 "HgN/A
2:30 PM46 °FLight rain. Partly sunny.10 mph93%29.83 "Hg6 mi
2:00 PM46 °FLight rain. Partly sunny.13 mph93%29.83 "Hg5 mi
1:30 PM46 °FLight rain. Partly sunny.10 mph93%29.83 "Hg6 mi
1:00 PM46 °FLight rain. Partly sunny.13 mph93%29.83 "HgN/A
12:30 PM46 °FLight rain. Partly sunny.10 mph87%29.86 "HgN/A
12:00 PM46 °FLight rain. Partly sunny.10 mph87%29.86 "HgN/A
11:30 AM46 °FLight rain. Partly sunny.6 mph93%29.86 "HgN/A
11:00 AM46 °FLight rain. Partly sunny.8 mph87%29.86 "HgN/A
10:30 AM46 °FSunny.10 mph87%29.86 "Hg10 mi
10:00 AM46 °FPartly sunny.10 mph82%29.86 "HgN/A
9:30 AM46 °FPartly sunny.8 mph82%29.86 "HgN/A
9:00 AM46 °FPartly sunny.8 mph82%29.89 "HgN/A
8:30 AM45 °FSunny.6 mph87%29.89 "Hg10 mi
8:00 AM45 °FOvercast.6 mph87%29.89 "HgN/A
7:30 AM45 °FPassing clouds.6 mph87%29.89 "HgN/A
7:00 AM45 °FPassing clouds.6 mph87%29.92 "HgN/A
6:30 AM45 °FOvercast.8 mph87%29.92 "HgN/A
6:00 AM45 °FOvercast.10 mph87%29.92 "HgN/A
5:30 AM45 °FOvercast.8 mph87%29.92 "HgN/A
5:00 AM43 °FOvercast.8 mph93%29.95 "HgN/A
4:30 AM43 °FOvercast.8 mph93%29.95 "HgN/A
4:00 AM43 °FOvercast.8 mph93%29.95 "HgN/A
3:30 AM43 °FOvercast.6 mph93%29.95 "HgN/A
3:00 AM43 °FOvercast.6 mph93%29.98 "HgN/A
2:30 AM43 °FOvercast.6 mph93%29.98 "HgN/A
2:00 AM43 °FOvercast.3 mph93%29.98 "HgN/A
1:00 AM45 °FOvercast.6 mph87%29.98 "HgN/A
Weather by CustomWeather, © 2016

See weather overviewHow to use our weather pages